Weather History for KMFV - May, 2013

Change the Weather History Date:

Friday, May 31, 2013

  Actual Average (KWAL) Record (KWAL)
Temperature  
Mean Temperature 80 °F 67 °F  
Max Temperature 89 °F 76 °F 97 °F (1991)
Min Temperature 71 °F 59 °F 42 °F (1996)
Degree Days  
Heating Degree Days 0    
Month to date heating degree days  
Since 1 July heating degree days  
Cooling Degree Days 15    
Month to date cooling degree days  
Year to date cooling degree days  
Growing Degree Days 30 (Base 50)    
Moisture  
Dew Point 66 °F    
Average Humidity 66    
Maximum Humidity 88    
Minimum Humidity 38    
Precipitation  
Precipitation 0.00 in 0.11 in 1.56 in (2008)
Month to date precipitation 2.95  
Year to date precipitation 15.82  
Sea Level Pressure  
Sea Level Pressure 30.16 in    
Wind  
Wind Speed 7 mph (SSW)    
Max Wind Speed 14 mph    
Max Gust Speed 21 mph    
Visibility 10 miles    
Events      
T = Trace of Precipitation, MM = Missing Value Source: NWS Daily Summary

Daily Weather History Graph

Daily Weather History Graph

Search for Another Location

Airport or City:

Trip Planner

Search our weather history database for the weather conditions in past years. The results will help you decide how hot, cold, wet, or windy it might be!

Date:

Astronomy

May. 31, 2013 Rise Set
Actual Time 5:43 AM EDT 8:18 PM EDT
Civil Twilight 5:12 AM EDT 8:49 PM EDT
Nautical Twilight 4:34 AM EDT 9:27 PM EDT
Astronomical Twilight 3:52 AM EDT 10:09 PM EDT
Moon 12:57 AM EDT (5/31) 12:50 PM EDT (5/31)
Length of Visible Light 15h 36m
Length of Day
14h 34m
Waning Gibbous, 51% of the Moon is Illuminated
May 31
Waning Gibbous
May 31
Last Quarter
Jun 8
New
Jun 16
First Quarter
Jun 23
Full

Hourly Weather History & Observations

Time (EDT) Temp. Heat Index Dew Point Humidity Pressure Visibility Wind Dir Wind Speed Gust Speed Precip Events Conditions
12:16 AM 71.6 °F - 66.2 °F 83% 30.18 in 10.0 mi SSW 5.8 mph - N/A   Clear
12:36 AM 71.6 °F - 66.2 °F 83% 30.18 in 10.0 mi SSW 6.9 mph - N/A   Clear
12:56 AM 71.6 °F - 66.2 °F 83% 30.18 in 10.0 mi SSW 6.9 mph - N/A   Clear
1:16 AM 71.6 °F - 66.2 °F 83% 30.18 in 10.0 mi SSW 6.9 mph - N/A   Clear
1:36 AM 71.6 °F - 66.2 °F 83% 30.18 in 10.0 mi SW 6.9 mph - N/A   Clear
1:56 AM 71.6 °F - 66.2 °F 83% 30.18 in 10.0 mi SW 5.8 mph - N/A   Clear
2:16 AM 71.6 °F - 66.2 °F 83% 30.18 in 10.0 mi SSW 5.8 mph - N/A   Clear
2:37 AM 71.6 °F - 66.2 °F 83% 30.17 in 10.0 mi SSW 5.8 mph - N/A   Clear
2:56 AM 71.6 °F - 66.2 °F 83% 30.17 in 10.0 mi SW 6.9 mph - N/A   Clear
3:16 AM 71.6 °F - 68.0 °F 88% 30.17 in 10.0 mi SW 6.9 mph - N/A   Clear
3:36 AM 73.4 °F - 68.0 °F 83% 30.18 in 10.0 mi SW 6.9 mph - N/A   Clear
3:56 AM 73.4 °F - 68.0 °F 83% 30.18 in 10.0 mi SW 6.9 mph - N/A   Clear
4:16 AM 73.4 °F - 68.0 °F 83% 30.18 in 10.0 mi SW 8.1 mph - N/A   Clear
4:37 AM 73.4 °F - 68.0 °F 83% 30.19 in 10.0 mi SW 6.9 mph - N/A   Clear
4:56 AM 73.4 °F - 68.0 °F 83% 30.19 in 10.0 mi WSW 5.8 mph - N/A   Clear
5:16 AM 71.6 °F - 66.2 °F 83% 30.20 in 10.0 mi SW 4.6 mph - N/A   Clear
5:36 AM 71.6 °F - 66.2 °F 83% 30.20 in 10.0 mi WSW 5.8 mph - N/A   Clear
5:56 AM 71.6 °F - 66.2 °F 83% 30.20 in 10.0 mi SW 4.6 mph - N/A   Clear
6:16 AM 71.6 °F - 66.2 °F 83% 30.21 in 10.0 mi SW 4.6 mph - N/A   Clear
6:36 AM 71.6 °F - 68.0 °F 88% 30.21 in 10.0 mi SW 4.6 mph - N/A   Clear
6:57 AM 73.4 °F - 68.0 °F 83% 30.22 in 10.0 mi SW 4.6 mph - N/A   Clear
7:17 AM 73.4 °F - 68.0 °F 83% 30.22 in 10.0 mi SW 4.6 mph - N/A   Clear
7:36 AM 75.2 °F - 69.8 °F 83% 30.22 in 10.0 mi SW 5.8 mph - N/A   Clear
7:56 AM 75.2 °F - 69.8 °F 83% 30.22 in 10.0 mi SW 6.9 mph - N/A   Clear
8:16 AM 77.0 °F - 68.0 °F 74% 30.22 in 10.0 mi SW 6.9 mph - N/A   Clear
8:36 AM 78.8 °F - 68.0 °F 69% 30.22 in 10.0 mi WSW 6.9 mph - N/A   Clear
8:56 AM 80.6 °F 82.7 °F 66.2 °F 61% 30.21 in 10.0 mi West 6.9 mph - N/A   Clear
9:16 AM 80.6 °F 82.7 °F 66.2 °F 61% 30.21 in 10.0 mi WSW 6.9 mph - N/A   Clear
9:36 AM 80.6 °F 82.7 °F 66.2 °F 61% 30.20 in 10.0 mi SW 8.1 mph - N/A   Clear
9:56 AM 82.4 °F 84.6 °F 66.2 °F 58% 30.20 in 10.0 mi West 5.8 mph - N/A   Clear
10:16 AM 82.4 °F 84.6 °F 66.2 °F 58% 30.20 in 10.0 mi SSW 4.6 mph - N/A   Clear
10:36 AM 84.2 °F 86.6 °F 66.2 °F 55% 30.20 in 10.0 mi WSW 4.6 mph - N/A   Clear
10:56 AM 84.2 °F 86.6 °F 66.2 °F 55% 30.20 in 10.0 mi WSW 4.6 mph - N/A   Clear
11:16 AM 86.0 °F 87.3 °F 64.4 °F 48% 30.20 in 10.0 mi WSW 5.8 mph - N/A   Clear
11:36 AM 87.8 °F 89.4 °F 64.4 °F 46% 30.20 in 10.0 mi South 9.2 mph - N/A   Clear
11:56 AM 89.6 °F 90.1 °F 62.6 °F 40% 30.19 in 10.0 mi SSW 8.1 mph - N/A   Clear
12:17 PM 89.6 °F 89.5 °F 60.8 °F 38% 30.19 in 10.0 mi SSW 9.2 mph - N/A   Clear
12:36 PM 89.6 °F 89.5 °F 60.8 °F 38% 30.19 in 10.0 mi SSW 9.2 mph - N/A   Clear
12:56 PM 89.6 °F 92.2 °F 66.2 °F 46% 30.18 in 10.0 mi South 10.4 mph - N/A   Clear
1:16 PM 89.6 °F 92.2 °F 66.2 °F 46% 30.18 in 10.0 mi South 5.8 mph 17.3 mph N/A   Scattered Clouds
1:36 PM 87.8 °F 90.4 °F 66.2 °F 49% 30.18 in 10.0 mi South 8.1 mph - N/A   Scattered Clouds
1:56 PM 87.8 °F 91.4 °F 68.0 °F 52% 30.17 in 10.0 mi SSE 12.7 mph 16.1 mph N/A   Scattered Clouds
2:16 PM 87.8 °F 91.4 °F 68.0 °F 52% 30.16 in 10.0 mi South 11.5 mph 16.1 mph N/A   Scattered Clouds
2:36 PM 87.8 °F 90.4 °F 66.2 °F 49% 30.15 in 10.0 mi South 11.5 mph 16.1 mph N/A   Clear
2:56 PM 87.8 °F 90.4 °F 66.2 °F 49% 30.15 in 10.0 mi South 9.2 mph 17.3 mph N/A   Clear
3:16 PM 86.0 °F 88.2 °F 66.2 °F 51% 30.15 in 10.0 mi South 12.7 mph 18.4 mph N/A   Clear
3:36 PM 87.8 °F 90.4 °F 66.2 °F 49% 30.14 in 10.0 mi South 9.2 mph - N/A   Clear
3:56 PM 86.0 °F 88.2 °F 66.2 °F 51% 30.14 in 10.0 mi South 12.7 mph 17.3 mph N/A   Clear
4:16 PM 84.2 °F 86.6 °F 66.2 °F 55% 30.14 in 10.0 mi South 10.4 mph 18.4 mph N/A   Clear
4:39 PM 84.2 °F 86.6 °F 66.2 °F 55% 30.13 in 10.0 mi South 12.7 mph 18.4 mph N/A   Clear
4:56 PM 84.2 °F 85.6 °F 64.4 °F 51% 30.12 in 10.0 mi South 11.5 mph 20.7 mph N/A   Clear
5:16 PM 84.2 °F 85.6 °F 64.4 °F 51% 30.12 in 10.0 mi South 12.7 mph 18.4 mph N/A   Clear
5:36 PM 84.2 °F 85.0 °F 62.6 °F 48% 30.12 in 10.0 mi SSW 13.8 mph 18.4 mph N/A   Clear
5:56 PM 82.4 °F 83.4 °F 62.6 °F 51% 30.12 in 10.0 mi South 8.1 mph 20.7 mph N/A   Clear
6:16 PM 82.4 °F 83.9 °F 64.4 °F 54% 30.11 in 10.0 mi South 8.1 mph 18.4 mph N/A   Clear
6:36 PM 80.6 °F 82.7 °F 66.2 °F 61% 30.11 in 10.0 mi South 12.7 mph 17.3 mph N/A   Clear
6:56 PM 80.6 °F 82.7 °F 66.2 °F 61% 30.11 in 10.0 mi South 12.7 mph 19.6 mph N/A   Clear
7:16 PM 78.8 °F - 66.2 °F 65% 30.11 in 10.0 mi South 9.2 mph 18.4 mph N/A   Clear
7:36 PM 78.8 °F - 64.4 °F 61% 30.11 in 10.0 mi South 10.4 mph - N/A   Clear
7:56 PM 78.8 °F - 62.6 °F 57% 30.11 in 10.0 mi South 10.4 mph - N/A   Clear
8:17 PM 77.0 °F - 62.6 °F 61% 30.11 in 10.0 mi South 6.9 mph - N/A   Clear
8:36 PM 77.0 °F - 62.6 °F 61% 30.11 in 10.0 mi South 6.9 mph - N/A   Clear
8:56 PM 75.2 °F - 64.4 °F 69% 30.10 in 10.0 mi South 6.9 mph - N/A   Clear
9:16 PM 75.2 °F - 66.2 °F 73% 30.10 in 10.0 mi South 8.1 mph - N/A   Clear
9:36 PM 75.2 °F - 66.2 °F 73% 30.11 in 10.0 mi South 8.1 mph - N/A   Clear
9:56 PM 75.2 °F - 66.2 °F 73% 30.11 in 10.0 mi South 6.9 mph - N/A   Clear
10:16 PM 75.2 °F - 66.2 °F 73% 30.11 in 10.0 mi SSW 6.9 mph - N/A   Clear
10:36 PM 75.2 °F - 66.2 °F 73% 30.11 in 10.0 mi South 5.8 mph - N/A   Clear
10:56 PM 75.2 °F - 66.2 °F 73% 30.11 in 10.0 mi SSW 8.1 mph - N/A   Clear
11:16 PM 75.2 °F - 66.2 °F 73% 30.11 in 10.0 mi SSW 10.4 mph - N/A   Clear
11:36 PM 75.2 °F - 66.2 °F 73% 30.11 in 10.0 mi SSW 8.1 mph - N/A   Clear
11:56 PM 75.2 °F - 66.2 °F 73% 30.11 in 10.0 mi SSW 9.2 mph - N/A   Clear